Inscriptos

800 Electronico
Fecha Serie Viento Presión Humedad Temperatura
05-06-2016 Final_A
Andarivel Nombre Dia Mes Año Equipo Mejor Marca
5408 Martino Gerardo 10 12 1992 FLRES - 1.52.79
3402 Moreira Jairo 07 03 1995 ENP - 1.56.73
323 Mora Pablo 19 3 1979 DSP - 1.59.50
2228 Larrosa Daniel 16 2 1991 AND - 1.59.52
5441 Gonzalez Waldemar 30 11 1998 FLRES - 1.59.62
1143 Gargallo Matias 22 12 1998 CAPOA - 2.00.49
7002 Bentancour Adrian 29 8 1994 PAY - 2.01.29
7034 Alvarez Gustavo 24 7 1999 PAY - 2.03.01
3005 Trias Pablo 28 8 1980 NAC - 2.03.77
430 Flores Guillermo 27 8 1985 ATE - 2.04.39
3914 Gularte Rodrigo 29 3 2000 APRAD - 2.04.93
1111 Sosa Cristofer 3 8 1994 CAPOA - 2.05.99
4346 Caceres Nicolas 2 1 1987 ENP - 2.06.78
4053 Castillo Alejandro 20 6 1999 VO2 - 2.06.80
1055 Soria Matias 11 2 1997 CAPOA - 2.07.94
1381 Acuña Juan Manuel 2 11 1996 CAP - 2.08.19
423 Rodriguez Joaquin 4 11 1993 ATE - 2.08.33
4818 Suhr Julio 5 3 1995 NAC - 2.10.50
1011 Castaño Gonzalo 12 4 1994 CAPOA - 2.11.25
6066 Bonner Juan 15 11 1982 FAM - 2.11.80
3705 Mateos Cristian 23 11 2001 SACUD - 2.12.42
353 De Los Santos Joaquin 24 9 1999 DSP - 2.13.08
1063 Saragüella Facundo 23 5 1998 CAPOA - 2.13.51
4523 Rolon Paulo 23 3 1998 FEDAC - 2.14.20
301 Gronrroz Ciro 5 10 2000 DSP - 2.16.83
3785 Almanso Ismael 17 4 1999 SACU - 2.17.98
7044 Sawczuk Ignacio 25 12 2000 PAY - 2.20.43
3707 Andrade Nahuel 3 10 1999 SACUD - 2.20.98
9.99.99
2496 Santos Facundo 23 9 2002 AGUIL - 9.99.99
3605 Machado Reinaldo 2 8 1998 LGA - 9.99.99
229 Fernandez Ezequiel 13 11 2001 FRN - 9.99.99
1196 Aggierni Luca 31 7 1997 CAPOA - 9.99.99
2498 Nievas Julio 14 6 1998 AGUIL - 9.99.99
4050 Perdomo Alexis 05 01 1992 VO2 - 9.99.99